This is the latest recevied weather packets stored in our database for station/object JA7ZQY-10. If no packets are shown the sender has not sent any weather packets the latest 10 day(s).
| Time | Temp. | Humidity | Pressure | Rain* | Wind** | Luminosity | Snow |
|---|---|---|---|---|---|---|---|
| 1777443156 | 16.67° C | 34% | 1015.6 hPa | 0 mm | - | - | - |
| 1777442556 | 16.67° C | 33% | 1015.8 hPa | 0 mm | - | - | - |
| 1777441955 | 17.22° C | 41% | 1015.5 hPa | 0 mm | - | - | - |
| 1777441355 | 15° C | 51% | 1015.5 hPa | 0 mm | - | - | - |
| 1777440756 | 14.44° C | 54% | 1015.6 hPa | 0 mm | - | - | - |
| 1777440156 | 14.44° C | 53% | 1015.5 hPa | 0 mm | - | - | - |
| 1777439555 | 15.56° C | 48% | 1015.5 hPa | 0 mm | - | - | - |
| 1777438955 | 16.11° C | 47% | 1015.7 hPa | 0 mm | - | - | - |
| 1777438356 | 16.67° C | 47% | 1015.6 hPa | 0 mm | - | - | - |
| 1777437754 | 16.67° C | 49% | 1015.8 hPa | 0 mm | - | - | - |
| 1777437155 | 16.11° C | 47% | 1015.7 hPa | 0 mm | - | - | - |
| 1777436556 | 16.67° C | 35% | 1015.6 hPa | 0 mm | - | - | - |
| 1777435955 | 15.56° C | 35% | 1015.7 hPa | 0 mm | - | - | - |
| 1777435355 | 15.56° C | 35% | 1015.9 hPa | 0 mm | - | - | - |
| 1777434756 | 15.56° C | 37% | 1015.9 hPa | 0 mm | - | - | - |
| 1777434155 | 15.56° C | 33% | 1015.8 hPa | 0 mm | - | - | - |
| 1777433555 | 15.56° C | 37% | 1015.8 hPa | 0 mm | - | - | - |
| 1777432955 | 14.44° C | 41% | 1016 hPa | 0 mm | - | - | - |
| 1777432356 | 14.44° C | 41% | 1016 hPa | 0 mm | - | - | - |
| 1777431756 | 14.44° C | 41% | 1015.8 hPa | 0 mm | - | - | - |
| 1777431156 | 14.44° C | 41% | 1016.1 hPa | 0 mm | - | - | - |
| 1777430555 | 15° C | 43% | 1015.8 hPa | 0 mm | - | - | - |
| 1777429955 | 14.44° C | 42% | 1016.1 hPa | 0 mm | - | - | - |
| 1777429356 | 15.56° C | 42% | 1016.2 hPa | 0 mm | - | - | - |
| 1777428755 | 15.56° C | 43% | 1015.9 hPa | 0 mm | - | - | - |
* Rain latest hour (hover to see other rain measurements)
** Current wind speed in m/s (hover to see current wind gust speed)